Location: Janeiro
(34.9957°N, 76.7652°W)
Time: 18:23:20
(UTC+00:00)

Sich 1 Rocket - Pass Details

Date: 14 December 2019
Orbit: 616 x 653 km, 82.5° (Epoch: 18 January)

Event Time Altitude Azimuth Distance (km) Brightness Sun altitude
Rises 23:03:38 0° 354° (N) 2,895 6.9 -13.4°
Reaches altitude 10° 23:05:52 10° 355° (N) 1,984 6.0 -13.9°
Maximum altitude 23:10:16 81° 83° (E) 628 3.4 -14.7°
Drops below altitude 10° 23:14:38 10° 171° (S) 1,972 6.2 -15.6°
Sets 23:16:51 0° 173° (S) 2,876 7.1 -16.0°
